Location: Joplin, MO
(37.0842°N, 94.5133°W)
Time: 22:30:32
(UTC+02:00)

Transit 2A Rocket - Pass Details

Date: 31 March 2023
Orbit: 584 x 914 km, 66.7° (Epoch: 06 June)

Event Time Altitude Azimuth Distance (km) Brightness Sun altitude
Rises 03:08:37 0° 334° (NNW) 3,551 9.0 -6.7°
Reaches altitude 10° 03:11:13 10° 337° (NNW) 2,595 8.2 -7.2°
Maximum altitude 03:17:16 68° 60° (ENE) 943 5.3 -8.4°
Drops below altitude 10° 03:22:57 10° 144° (SE) 2,440 7.2 -9.5°
Enters shadow 03:24:41 - 146° (SE) 3,087 7.7 -9.9°
Sets 03:25:19 0° 146° (SSE) 3,325 - -10.0°
